OBJECT BC, 63260

Orbit data source: Space-Track

You're viewing an Uncataloged Satellite

Recently launched and/or uncataloged satellites may have evolving metadata. Metadata may include but not limited to: Owner, Maufacturer, Bus, Motor, and Mission.

OBJECT BC, 63260 is a satellite in SSO that was launched on Sat, 15 Mar 2025 UTC via an FALCON 9 launch vehicle from the Air Force Western Test Range (AFWTR). Unknown objects in Earth's orbit typically refer to objects detected orbiting the Earth but have not yet been identified or cataloged. These objects could be anything from previously untracked satellites, spent rocket stages, debris from satellite collisions, or even natural meteoroids temporarily captured by Earth's gravity.

Loading next visibility...
Identifier
63260, 2025-052BC
Orbit
SSO
Country
Flag of TBDTBD
Related business
None
Manufacturer
Unknown
Mission
Operational Amateur Technology
Bus & Motor
Unknown
Mass
Unknown
Launch date (UTC)
2025-03-15 (7 months ago)
Launch vehicle
FALCON 9
Launch site
Air Force Western Test Range (AFWTR)
Object type
Unknown
Shape & HBR
Box + 4 Pan + 1 Sail, 1.1 m
Radar Cross Section
0.090 m², Small (<0.1 m²)

Expand to show TLE details & history
Last TLE update: 9 hours ago

TLE from 9 hours ago
0 OBJECT BC
1 63260U 25052BC  25299.64045432  .00003132  00000-0  30229-3 0  9994
2 63260  97.7057 190.6330 0002904  59.6331 300.5176 14.93576674 33750
Epoch: 2025-10-26T15:22Z
TLE epoch observation values (Epoch: 2025-10-26T15:22:15.253Z)
Latitude
0.00002°
Longitude
-75.1843°
Altitude
588.813 km
Speed
7.566 km/s
True Right ascension
12h 42m 31s
True Declination
0° 00' 00"
Sunlit
Object was in daylight at epoch
Visualization orbit readout
Latitude
Unknown
Longitude
Unknown
Altitude
Unknown
Speed
Unknown
Apparent Right ascension
Unknown
Apparent Declination
Unknown
Sunlit
N/A
Visualization observer readout
Local Sidereal Time
19:54:12
Azimuth
Unknown
Elevation
Unknown
Doppler factor
Unknown
Orbital elements
Apogee altitude
585.83 km
Perigee altitude
581.786 km
Semi-major axis
6,961.945 km
Eccentricity
0.00029
Inclination
97.7057°
RAAN
190.633°
Arg. of periapsis
59.6331°
True anomaly
300.48893°
Mean anomaly
300.5176°
Eccentric anomaly
300.50326°
Mean motion
3.73635 °/min
Orbital period
96.35 mins
BSTAR
0.00030229
Loading maneuver chart data...
Computing Atmospheric mass density...
Loading historical data...
Loading historical data...
Loading historical data...
Loading historical data...
Loading historical data...
Loading historical data...
Loading historical data...

Documentation

Showing up to 5 results
|